User: anonymous   Login
Location: Gugi
(45.4667°N, 11.1000°E)
Time: 22:58:21
(UTC+00:00)
Language:

Helios 1A Rocket - Orbit

View from above orbital plane
View from above orbital plane
View from above satellite
View from above satellite

Ground track
Ground track

The orbit data is extracted from the following two-line orbital elements,

1 23608U 95033D   20027.84844304 -.00000182  00000-0 -98729-5 0  9998
2 23608  98.3227  30.0235 0016560 349.4697  10.6174 14.97189213330566
Epoch (UTC): 27 January 2020 20:21:45
Eccentricity: 0.0016560
inclination: 98.3227°
perigee height: 564 km
apogee height: 587 km
right ascension of ascending node: 30.0235°
argument of perigee: 349.4697°
revolutions per day: 14.97189213
mean anomaly at epoch: 10.6174°
orbit number at epoch: 33056

The dashed part of the orbit path shows where the satellite is in the earth's shadow,  

DLR